Location: Unspecified
(48.8656°N, 0.0000°E)
Time: 11:46:26
(UTC+00:00)

Explorer 7 - Visible Passes

Search period start: 05 August 2020 00:00
Search period end: 15 August 2020 00:00
Orbit: 485 x 679 km, 50.3° (Epoch: 04 August)

Date Brightness Start Highest point End Pass type
(mag) Time Alt. Az. Time Alt. Az. Time Alt. Az.
05 Aug 7.0 00:59:20 59° ENE 00:59:20 59° ENE 01:02:36 10° E visible
05 Aug 6.5 02:35:42 11° WNW 02:39:17 60° SSW 02:43:06 10° SE visible
05 Aug 7.6 21:39:09 10° SW 21:41:33 30° S 21:41:33 30° S visible
05 Aug9.923:28:55ENE23:28:55ENE23:18:04Wvisible
06 Aug 7.9 01:05:22 30° E 01:05:22 30° E 01:07:27 10° E visible
06 Aug 6.9 02:41:50 21° W 02:44:00 43° SSW 02:47:41 10° SE visible
06 Aug 8.4 20:05:34 10° SSE 20:07:34 14° SE 20:09:32 10° ESE visible
06 Aug 6.6 21:43:40 10° SW 21:47:25 54° SSE 21:48:23 41° ESE visible
06 Aug 9.0 23:24:05 10° W 23:24:47 15° W 23:24:47 15° W visible
07 Aug 7.5 02:49:19 28° SSW 02:49:19 28° SSW 02:52:04 10° SSE visible
07 Aug 8.0 20:09:10 10° S 20:12:07 21° SE 20:15:01 10° E visible
07 Aug 6.4 21:48:20 10° WSW 21:52:11 73° SSE 21:53:57 29° E visible
07 Aug 8.6 23:28:56 10° W 23:30:17 21° W 23:30:17 21° W visible
08 Aug 7.5 20:13:16 10° SSW 20:16:44 30° SSE 20:20:06 10° E visible
08 Aug 6.5 21:53:05 10° WSW 21:56:57 90° NNE 21:58:49 28° ENE visible
08 Aug 8.6 23:33:46 10° W 23:35:08 21° WNW 23:35:08 21° WNW visible
09 Aug 7.0 20:17:39 10° SW 20:21:24 43° SSE 20:25:01 10° E visible
09 Aug 6.6 21:57:54 10° W 22:01:46 77° N 22:03:23 32° ENE visible
09 Aug 8.8 23:38:35 10° WNW 23:39:41 18° WNW 23:39:41 18° WNW visible
10 Aug 6.7 20:22:13 10° SW 20:26:07 60° SSE 20:29:52 10° ENE visible
10 Aug 6.8 22:02:45 10° W 22:06:36 70° N 22:07:48 40° ENE visible
10 Aug 9.1 23:43:23 10° WNW 23:44:05 15° WNW 23:44:05 15° WNW visible
11 Aug 6.6 20:26:56 10° WSW 20:30:52 78° SSE 20:34:40 10° ENE visible
11 Aug 6.8 22:07:35 10° W 22:11:26 69° N 22:12:08 53° ENE visible
11 Aug 9.3 23:48:11 10° WNW 23:48:26 12° WNW 23:48:26 12° WNW visible
12 Aug 6.6 20:31:42 10° WSW 20:35:40 85° NNW 20:39:28 10° ENE visible
12 Aug 6.6 22:12:26 10° W 22:16:16 73° N 22:16:26 72° NNE visible
13 Aug 6.8 20:36:32 10° W 20:40:28 75° N 20:44:16 10° ENE visible
13 Aug 6.7 22:17:14 10° WNW 22:20:42 70° WNW 22:20:42 70° WNW visible
14 Aug 6.9 20:41:22 10° W 20:45:18 70° N 20:48:42 13° E visible
14 Aug 7.2 22:22:03 10° WNW 22:24:58 50° W 22:24:58 50° W visible
